Theta_e
286 288 289 288 289 289 287 289 284 289 289 294 298 299 300 310 316 317 318 320 321 321 322 324 325 325 324 323 322 323 323 325 322 323 324 324 324 325 325 324 327 327 327 324
285 288 289 287 291 290 289 290 290 290 290 300 302 309 309 315 317 317 318 320 321 322 323 323 323 323 323 322 320 323 324 325 326 324 325 323 323 324 323 323 323 322 323 320
280 288 288 284 288 289 290 292 292 288 293 300 306 310 310 315 317 317 319 320 321 322 323 323 323 322 319 321 320 324 325 326 326 325 325 324 325 324 321 320 320 319 318 318
281 285 276 288 299 299 297 297 296 296 297 300 307 314 313 315 317 318 320 320 322 323 323 322 322 319 318 319 323 324 325 327 326 326 324 325 324 322 320 318 318 318 316 315
281 283 287 291 295 294 293 295 304 304 306 307 312 313 312 317 318 317 321 322 323 324 323 320 319 318 319 317 323 324 325 325 326 325 324 324 322 321 320 320 318 318 317 314
283 281 279 288 296 298 298 290 305 306 307 307 310 304 306 315 318 319 322 323 323 324 321 319 318 319 318 316 321 323 324 325 326 326 325 324 322 321 320 320 323 322 319 316
283 283 287 293 293 298 290 294 303 306 306 309 307 311 312 316 319 320 321 322 324 322 319 319 319 319 317 315 316 323 325 325 325 325 324 324 322 321 321 319 319 320 318 317
285 284 281 295 295 290 296 302 305 306 306 309 310 312 314 317 318 320 319 323 324 321 318 318 319 318 316 314 316 319 324 325 324 324 328 326 323 321 321 318 316 315 317 314
284 286 294 297 296 300 302 303 304 305 305 309 308 312 313 316 319 319 322 323 323 319 317 319 319 319 315 316 315 318 324 324 324 326 325 324 323 321 320 316 317 319 320 319
289 293 295 297 300 301 302 302 305 306 306 308 307 312 312 314 317 320 321 323 323 320 317 317 318 319 318 316 317 323 323 324 324 325 322 323 324 323 321 316 315 318 320 318
292 295 295 299 299 300 302 303 303 304 305 307 308 309 311 312 315 318 321 323 325 321 319 317 318 319 318 318 318 322 323 323 324 324 323 322 321 321 323 320 317 318 319 318
287 294 293 295 299 302 301 301 303 303 303 306 308 309 311 311 315 319 319 322 324 323 321 320 319 319 320 318 320 322 321 322 322 323 322 319 314 308 295 300 304 306 308 314
293 297 297 298 300 301 300 301 303 303 304 306 308 309 310 310 312 317 322 324 324 324 323 321 320 319 321 319 321 321 320 321 320 320 320 314 312 312 310 305 298 298 301 303
298 299 296 297 296 300 301 303 305 304 306 308 310 310 310 310 314 320 320 322 326 327 326 322 321 319 322 321 322 322 320 310 321 320 319 315 313 311 311 315 318 315 300 300
298 299 299 301 301 301 302 302 302 303 304 305 309 309 310 310 312 318 323 326 327 326 327 324 322 320 323 322 321 321 321 320 322 321 318 316 315 312 311 312 320 316 308 302
297 300 301 298 299 301 300 301 301 302 304 305 306 310 311 311 314 323 322 321 321 319 323 324 323 323 323 322 321 321 321 311 314 320 319 317 316 314 313 311 313 316 316 316
298 297 299 298 298 300 300 301 303 304 304 305 306 310 313 312 315 318 317 318 318 321 321 320 320 325 323 321 322 321 321 315 307 320 320 319 318 316 315 315 313 312 317 311
302 302 303 302 299 300 301 303 304 304 305 307 308 311 313 311 316 316 316 317 318 318 319 318 315 322 323 321 323 322 321 319 317 319 320 320 319 321 317 316 316 314 313 310
303 303 303 304 304 302 303 304 306 308 309 309 309 312 313 314 318 319 315 315 315 316 316 318 307 315 318 307 312 322 321 319 319 319 318 309 311 318 320 317 316 316 316 314
301 303 303 304 305 304 303 305 306 306 307 307 309 311 310 313 317 317 315 311 311 309 316 318 316 316 317 314 305 319 321 320 319 318 318 315 316 315 316 308 317 316 315 316
299 301 302 303 302 303 303 303 303 303 304 305 305 306 307 307 311 308 306 305 307 304 312 309 313 308 313 306 318 322 320 320 318 318 317 314 314 313 314 314 314 317 316 314
299 301 302 301 299 300 301 301 301 302 302 302 302 303 303 302 304 306 303 300 303 293 306 306 305 295 297 295 323 324 324 324 321 319 317 316 315 314 315 314 315 315 315 316
300 300 300 301 298 297 299 300 299 298 299 299 298 299 299 300 299 298 298 300 299 295 301 299 292 295 298 319 319 316 316 317 320 322 323 321 317 317 317 316 317 317 316 314
301 301 300 300 298 297 295 296 298 297 296 296 297 297 295 295 297 297 298 293 291 295 296 292 293 292 297 306 308 310 308 307 309 313 314 305 317 320 321 320 317 317 315 310
301 301 299 297 296 295 295 296 296 296 295 294 294 295 294 295 293 295 295 297 291 295 297 291 290 292 298 299 299 299 299 298 300 304 306 306 309 309 312 313 316 319 321 317
301 298 298 297 295 296 295 295 293 294 293 292 293 293 293 294 294 294 294 292 294 291 293 293 292 294 295 295 296 296 296 294 295 296 297 299 300 305 304 306 310 312 316 319
302 298 297 296 296 296 295 293 292 291 292 293 292 293 293 293 292 292 290 292 292 292 291 291 290 290 291 292 292 292 292 292 290 292 293 294 295 296 298 300 303 303 304 304
Wind_Speed
13 17 17 18 18 13 9 8 3 7 9 19 17 17 18 14 17 16 17 17 17 16 14 13 13 12 11 9 8 7 7 8 7 6 6 6 5 5 4 3 4 4 6 6
15 18 19 21 18 14 15 11 11 18 20 18 19 16 7 19 21 21 19 19 18 17 16 15 14 12 12 10 7 8 8 8 7 7 6 6 5 6 6 6 6 7 6 6
7 12 6 6 14 16 6 8 3 8 7 14 13 10 11 16 22 22 21 20 19 19 17 15 14 12 11 10 9 9 9 7 8 7 6 6 6 6 6 6 6 6 6 6
7 7 5 2 10 8 2 10 14 12 19 19 7 4 10 2 11 18 20 19 18 16 14 14 13 10 8 10 10 10 9 8 7 7 7 6 6 7 6 4 6 5 5 6
4 3 4 4 6 6 7 6 4 11 17 6 7 8 9 10 6 7 18 18 17 14 15 13 14 10 11 10 10 11 9 8 8 7 7 7 7 7 5 5 5 4 4 6
3 5 3 2 13 11 13 7 4 16 5 8 9 3 5 12 5 7 15 15 16 15 14 15 12 13 13 11 11 12 10 9 8 8 8 7 7 7 4 4 5 6 5 4
10 6 3 12 22 23 7 7 19 13 14 8 9 5 7 9 4 3 14 17 16 17 17 16 14 14 13 11 11 11 10 8 8 7 8 7 7 4 5 5 6 5 6 4
3 6 3 18 15 10 8 12 13 16 11 8 4 3 6 5 3 3 10 13 18 16 15 14 15 15 13 12 9 9 10 10 8 7 6 6 8 5 6 7 7 6 6 4
3 2 8 5 8 9 11 11 14 15 11 10 12 7 8 4 3 6 12 9 11 13 13 13 14 14 14 12 8 8 11 10 9 8 6 6 8 7 6 6 6 6 6 5
5 6 8 7 10 11 14 14 14 15 4 15 9 4 3 6 7 7 3 9 8 11 12 12 11 13 14 10 9 12 12 11 10 10 7 6 5 6 6 5 5 6 6 7
3 4 10 4 12 12 16 14 15 16 13 12 8 4 7 8 10 8 6 1 9 11 10 11 10 11 11 10 12 12 12 12 11 8 9 7 4 4 5 5 8 8 6 7
4 8 5 12 13 15 14 17 19 20 20 15 9 8 11 9 7 8 6 5 5 12 13 10 10 11 11 11 13 14 12 10 9 8 6 6 6 3 6 1 9 9 10 8
5 10 9 13 10 10 14 19 20 19 16 9 6 7 9 8 11 9 13 9 3 14 14 14 13 11 11 11 13 15 13 11 8 8 7 7 5 5 5 4 9 2 9 12
5 8 7 5 8 16 17 18 18 16 10 8 7 8 9 9 10 12 11 10 7 3 12 12 13 14 11 12 13 14 13 14 10 9 8 7 6 5 4 5 8 3 6 1
9 7 8 11 10 10 11 13 17 10 8 9 9 9 11 11 8 8 7 8 8 10 7 14 13 12 9 13 14 14 12 10 10 9 8 9 7 6 5 4 6 6 4 4
10 11 8 5 8 8 8 9 11 11 11 7 7 9 10 8 7 8 11 12 13 11 9 5 14 13 12 14 14 13 13 15 12 9 8 8 7 8 6 5 6 7 8 8
7 10 9 7 5 8 8 9 8 8 12 9 8 8 9 7 6 11 12 12 11 10 11 10 7 7 14 13 16 11 10 9 12 9 9 9 8 9 8 8 7 7 8 7
6 6 9 8 5 7 8 9 10 10 9 9 9 6 7 8 6 8 8 10 11 11 14 12 11 5 3 8 10 10 11 12 11 11 10 10 9 9 9 9 9 9 6 5
5 9 10 14 9 4 6 7 8 8 10 7 7 9 10 8 5 8 8 13 11 11 14 13 14 11 9 6 5 9 10 11 12 10 9 9 7 9 9 10 10 10 9 8
7 5 8 11 13 12 11 12 12 13 13 12 13 14 16 17 12 12 10 14 12 8 9 12 11 11 9 9 8 1 7 10 12 9 8 7 9 9 9 9 11 10 11 10
7 4 9 9 10 12 13 12 9 13 13 14 14 13 13 12 14 12 15 11 15 16 11 12 11 7 7 6 5 5 3 5 6 6 6 6 6 6 7 9 10 11 11 11
5 6 6 9 10 9 8 8 11 12 12 15 14 13 13 14 13 10 14 11 9 13 11 11 9 10 7 8 5 6 8 9 4 2 3 3 5 6 8 9 11 11 11 12
3 4 6 9 6 5 8 11 13 10 14 14 14 13 11 9 9 9 9 14 10 9 11 11 15 16 15 14 14 14 14 14 11 10 9 6 2 4 5 6 5 5 6 7
3 5 5 6 5 7 9 10 9 11 14 14 14 14 11 8 7 8 7 7 12 9 12 12 15 15 16 12 12 12 12 12 11 11 11 11 11 10 11 7 5 5 5 6
6 4 5 5 6 6 8 7 8 11 13 14 14 12 12 9 8 8 9 9 13 11 11 15 16 16 13 12 12 12 11 11 9 10 10 11 11 11 10 9 10 9 9 6
6 4 3 4 4 6 6 7 8 9 8 11 10 11 11 9 9 9 9 11 12 12 11 11 12 11 11 12 12 12 11 12 12 11 11 11 11 10 11 12 12 12 12 11
8 6 4 3 4 6 7 7 9 9 9 9 9 9 9 9 10 11 11 11 11 11 11 11 12 13 11 12 12 12 11 11 12 11 11 10 10 10 10 10 10 10 10 10
Wind_Direction
256 266 273 266 262 245 236 249 246 278 293 274 284 262 269 201 159 153 149 150 153 155 156 156 155 153 158 167 153 151 143 141 153 146 144 151 152 138 126 107 153 118 110 81
274 269 257 244 244 234 237 235 250 255 274 280 266 290 223 176 162 160 158 157 157 156 157 161 159 158 160 168 151 144 147 151 147 138 148 145 132 125 105 109 98 96 102 105
269 337 330 221 235 222 197 181 206 239 236 298 312 357 324 176 165 159 162 159 161 162 162 161 164 159 160 164 141 147 143 145 142 148 150 153 139 122 118 123 115 110 112 113
277 263 234 198 40 63 303 226 213 237 253 262 262 48 305 344 170 161 156 157 162 162 160 158 161 154 148 140 146 144 146 152 152 156 144 141 136 131 133 131 125 130 125 122
257 309 282 266 41 1 355 290 330 297 257 208 53 14 315 317 75 186 164 159 160 159 157 154 158 151 150 140 147 146 155 156 160 152 142 149 139 143 143 134 124 121 129 136
291 285 284 333 331 305 299 247 351 334 16 105 69 77 280 291 11 160 162 158 154 158 153 155 155 150 151 148 150 159 164 169 156 151 151 155 144 147 144 130 124 127 132 128
243 254 207 355 316 281 194 1 322 319 303 82 74 259 248 274 345 225 165 159 153 156 160 161 152 151 159 156 161 171 166 151 145 149 152 155 140 132 134 125 118 121 124 135
243 232 303 0 346 47 323 321 318 317 322 39 68 228 244 264 290 130 146 149 156 155 160 158 154 153 159 166 175 155 160 149 145 146 152 154 137 122 133 132 127 126 133 131
4 292 275 311 342 309 318 344 323 314 311 38 12 328 332 256 14 36 115 124 149 150 151 161 160 160 162 182 149 138 146 148 147 144 131 149 136 134 128 131 144 154 151 146
204 215 335 317 323 334 340 329 309 292 321 53 332 327 309 10 46 70 28 107 124 135 154 166 166 165 170 162 139 146 149 148 149 148 145 148 134 144 151 152 151 166 164 163
258 287 322 243 327 335 309 307 319 338 16 54 325 7 53 33 29 38 42 218 148 155 158 172 168 169 169 152 141 150 151 153 158 154 162 149 125 164 168 180 175 170 176 167
285 325 300 300 319 318 327 338 336 331 340 358 357 22 31 24 33 35 22 321 144 169 162 169 174 177 173 149 150 151 153 158 163 159 161 147 145 126 31 303 194 185 168 171
287 306 294 291 300 301 340 330 315 315 320 327 21 41 22 12 4 20 14 7 32 172 174 164 175 182 181 152 154 158 159 161 160 157 153 151 152 162 174 24 83 33 183 174
294 311 303 290 310 324 327 308 305 314 324 14 17 30 33 22 11 18 351 319 3 176 161 173 179 185 185 155 160 161 163 159 163 165 161 155 158 170 164 157 158 175 58 118
308 294 268 287 297 292 294 304 323 323 336 360 13 17 18 6 359 6 351 342 27 40 169 172 185 188 182 163 162 162 162 168 167 169 165 166 155 155 168 153 170 160 115 71
301 307 295 296 297 292 301 311 322 332 338 356 2 5 3 353 349 27 21 12 32 20 2 269 190 186 180 174 163 168 171 172 164 169 168 162 164 167 170 173 168 173 178 180
331 327 312 300 287 298 311 308 318 330 336 354 338 359 351 356 27 46 30 13 11 20 23 36 346 211 183 178 170 172 172 170 166 170 176 180 172 177 182 180 180 182 194 175
300 304 335 306 267 297 305 314 319 324 326 316 313 353 358 9 66 61 47 25 23 20 28 18 8 356 146 164 192 175 173 176 177 182 183 183 184 185 183 184 188 193 195 177
343 352 12 18 11 343 338 328 339 351 3 348 8 22 19 19 94 85 54 46 36 22 13 1 353 24 15 11 192 174 176 179 186 188 187 185 176 187 187 194 192 193 193 183
3 360 28 29 25 29 13 14 19 43 32 31 39 42 41 34 54 51 47 54 27 346 316 12 4 8 14 0 1 215 186 183 187 195 184 185 196 193 195 188 195 196 194 192
359 61 31 26 34 30 22 6 20 37 30 37 41 36 43 39 47 43 44 36 6 353 356 353 353 1 357 352 7 45 84 181 167 179 178 186 177 200 201 196 194 200 199 199
9 4 40 59 37 42 38 18 41 41 41 44 35 32 35 36 27 46 59 33 354 358 14 13 353 339 354 355 26 36 34 42 37 192 211 223 219 204 208 207 207 206 204 202
50 49 54 88 70 35 26 37 42 42 51 49 42 32 30 36 27 18 23 8 4 9 26 12 351 14 22 40 44 41 37 34 30 29 28 15 297 248 221 220 226 224 223 212
102 83 79 102 95 61 52 35 39 49 53 46 44 43 32 18 36 25 14 7 5 25 42 17 12 20 37 35 35 39 36 29 21 21 22 31 25 20 25 7 343 302 267 225
122 85 70 59 93 73 60 37 45 47 51 49 46 41 39 34 35 14 17 16 17 28 38 25 24 32 37 35 36 37 36 31 22 16 19 20 16 14 10 359 359 346 352 317
94 105 89 77 79 89 68 55 53 45 49 52 44 42 40 32 34 30 28 25 32 30 35 34 29 34 36 35 37 37 33 26 23 27 24 22 15 6 6 356 0 360 357 4
121 137 114 71 56 89 81 74 67 53 48 55 53 39 34 34 36 40 34 36 37 39 39 38 37 36 38 41 37 36 36 34 28 22 22 17 13 8 3 358 354 1 2 3